Location: Acheville
(50.3840°N, 2.8827°E)
Time: 19:32:44
(UTC+00:00)

Okean-O - Pass Details

Date: 24 October 2021
Orbit: 639 x 640 km, 98.2° (Epoch: 07 December)

Event Time Altitude Azimuth Distance (km) Brightness Sun altitude
Exits shadow 18:02:50 19° 114° (ESE) 1,526 4.0 -14.0°
Maximum altitude 18:05:14 32° 65° (ENE) 1,113 3.4 -14.4°
Drops below altitude 10° 18:09:10 10° 3° (N) 2,045 5.2 -15.0°
Sets 18:11:33 0° 353° (N) 2,959 6.1 -15.4°
